Location: Breezy Point Observatory
(38.9725°N, 81.7133°W)
Time: 15:33:15
(UTC-04:00)

Hubble Space Telescope - Visible Passes

Search period start: 23 August 2017 00:00
Search period end: 02 September 2017 00:00
Orbit: 538 x 542 km, 28.5° (Epoch: 22 August)

Date Brightness Start Highest point End Pass type
(mag) Time Alt. Az. Time Alt. Az. Time Alt. Az.
23 Aug 3.3 04:35:10 11° SE 04:35:10 11° SE 04:35:24 10° SE visible
23 Aug 2.9 06:11:13 10° SW 06:13:00 12° SSW 06:14:47 10° S visible
24 Aug 2.9 06:01:48 10° SSW 06:02:46 11° SSW 06:03:43 10° S visible
01 Sep 3.2 21:46:08 10° SSW 21:46:34 11° SSW 21:46:34 11° SSW visible
